Location: Unspecified
(40.7945°N, 0.0000°E)
Time: 15:54:29
(UTC+00:00)

METEOR M2 - Pass Details

Date: 10 August 2020
Orbit: 819 x 827 km, 98.5° (Epoch: 23 September)

Event Time Altitude Azimuth Distance (km) Brightness Sun altitude
Rises 20:19:32 0° 196° (SSW) 3,347 ? -13.4°
Reaches altitude 10° 20:22:13 10° 208° (SSW) 2,418 ? -13.8°
Maximum altitude 20:26:43 27° 265° (W) 1,532 ? -14.5°
Drops below altitude 10° 20:31:14 10° 323° (NW) 2,427 ? -15.2°
Sets 20:33:57 0° 335° (NNW) 3,363 ? -15.6°
